Total_Precipitation_Accumulation
0.00 0.00 0.00 0.00 0.00 0.00 0.00 0.00 0.00 0.01 0.02 0.05 0.10 0.17 0.30 0.38 0.45 0.56 0.64 0.61 0.79 0.85 1.05 1.43 1.79 2.04 2.31 2.22 2.24 2.16 2.20 2.37 2.46 2.63 2.78 3.01 3.02 3.01 3.27 3.54 3.68 3.88 3.93 3.74
0.00 0.00 0.00 0.00 0.00 0.00 0.00 0.01 0.01 0.04 0.06 0.08 0.14 0.27 0.39 0.45 0.47 0.62 0.76 0.79 1.07 1.22 1.25 1.41 1.73 2.04 2.27 2.29 2.25 2.29 2.47 2.54 2.67 3.01 3.47 3.87 4.18 4.33 4.43 4.65 4.66 4.54 4.38 4.24
0.00 0.00 0.00 0.00 0.00 0.00 0.01 0.01 0.03 0.06 0.11 0.15 0.22 0.49 0.56 0.53 0.53 0.69 0.88 0.94 1.11 1.30 1.44 1.34 1.39 1.57 1.87 2.12 2.28 2.34 2.64 3.00 3.35 3.84 4.39 4.81 5.16 5.37 5.27 5.10 4.97 4.73 4.49 4.29
0.00 0.00 0.00 0.00 0.00 0.01 0.01 0.01 0.02 0.04 0.10 0.22 0.25 0.52 0.65 0.63 0.71 0.80 0.88 0.88 0.98 1.01 1.12 1.22 1.26 1.36 1.63 1.85 2.12 2.42 2.72 3.27 4.01 4.68 5.24 5.71 5.91 5.88 5.73 5.47 5.09 4.69 4.35 4.01
0.00 0.01 0.01 0.00 0.00 0.00 0.01 0.00 0.01 0.04 0.07 0.17 0.22 0.46 0.73 0.79 0.85 0.93 1.02 0.96 0.94 0.98 0.96 1.01 1.10 1.23 1.48 1.67 1.95 2.32 2.77 3.42 4.09 4.71 5.29 5.74 5.93 5.83 5.55 5.10 4.58 4.07 3.59 3.22
0.01 0.01 0.00 0.00 0.00 0.00 0.00 0.01 0.03 0.06 0.11 0.23 0.20 0.37 0.79 1.04 1.12 1.25 1.20 1.22 1.24 1.12 1.06 1.03 1.00 1.04 1.19 1.44 1.75 2.12 2.55 3.07 3.57 4.00 4.55 4.88 5.05 4.98 4.64 4.15 3.55 3.09 2.76 2.47
0.02 0.01 0.01 0.00 0.00 0.00 0.00 0.02 0.10 0.17 0.20 0.25 0.21 0.42 0.94 1.24 1.27 1.36 1.30 1.36 1.39 1.22 1.10 1.04 0.99 0.95 1.03 1.25 1.56 1.80 2.06 2.47 2.75 3.10 3.49 3.71 3.72 3.57 3.35 3.10 2.80 2.41 2.06 1.77
0.07 0.05 0.02 0.01 0.01 0.01 0.01 0.02 0.14 0.30 0.30 0.34 0.44 0.79 1.24 1.27 1.16 1.19 1.22 1.21 1.17 1.03 0.97 1.02 1.05 1.03 1.11 1.16 1.31 1.49 1.61 1.80 1.93 2.07 2.26 2.29 2.26 2.18 2.15 2.02 1.82 1.58 1.31 1.05
0.14 0.08 0.03 0.01 0.01 0.01 0.01 0.03 0.08 0.13 0.20 0.37 0.72 1.20 1.52 1.40 1.30 1.20 1.08 0.92 0.97 0.92 0.86 0.90 0.93 1.01 1.08 1.08 1.07 1.08 1.08 1.11 1.12 1.14 1.24 1.29 1.29 1.27 1.23 1.14 1.03 0.92 0.82 0.72
0.12 0.10 0.05 0.03 0.02 0.02 0.03 0.05 0.07 0.13 0.34 0.52 0.79 1.22 1.67 1.78 1.73 1.64 1.34 1.03 1.00 0.96 0.89 0.81 0.75 0.79 0.85 0.84 0.81 0.77 0.77 0.76 0.70 0.66 0.67 0.72 0.76 0.74 0.70 0.67 0.63 0.58 0.54 0.49
0.08 0.10 0.08 0.06 0.06 0.07 0.05 0.06 0.08 0.15 0.25 0.49 0.93 1.44 1.58 1.85 1.87 1.72 1.42 1.16 1.12 1.05 0.97 0.91 0.87 0.77 0.72 0.72 0.72 0.68 0.66 0.62 0.59 0.56 0.55 0.51 0.49 0.47 0.42 0.40 0.39 0.36 0.32 0.30
0.09 0.14 0.13 0.10 0.09 0.08 0.08 0.08 0.10 0.22 0.24 0.32 0.77 1.54 1.69 1.88 1.90 1.76 1.71 1.51 1.30 1.17 1.06 0.97 0.92 0.79 0.71 0.67 0.67 0.67 0.59 0.53 0.51 0.46 0.42 0.39 0.35 0.33 0.31 0.29 0.27 0.24 0.22 0.20
0.11 0.23 0.31 0.40 0.33 0.16 0.10 0.09 0.12 0.14 0.22 0.40 0.79 1.53 1.79 1.85 1.78 1.72 1.59 1.53 1.56 1.52 1.35 1.13 0.96 0.81 0.67 0.58 0.57 0.57 0.55 0.49 0.45 0.42 0.41 0.39 0.33 0.29 0.28 0.26 0.23 0.21 0.20 0.19
0.11 0.24 0.42 0.75 0.63 0.28 0.16 0.13 0.15 0.18 0.36 0.55 0.79 1.26 1.52 1.70 1.80 1.87 1.78 1.74 1.72 1.46 1.10 0.87 0.78 0.71 0.63 0.59 0.55 0.50 0.48 0.46 0.44 0.44 0.45 0.47 0.45 0.37 0.33 0.30 0.25 0.20 0.17 0.15
0.14 0.27 0.28 0.33 0.32 0.22 0.20 0.18 0.21 0.24 0.27 0.49 0.78 1.18 1.53 1.67 1.78 1.83 1.89 1.81 1.56 1.28 1.06 0.89 0.79 0.75 0.70 0.61 0.51 0.43 0.40 0.37 0.36 0.40 0.42 0.43 0.42 0.39 0.34 0.30 0.27 0.22 0.16 0.13
0.16 0.32 0.28 0.31 0.28 0.32 0.36 0.31 0.32 0.32 0.40 0.56 0.87 1.26 1.48 1.68 1.80 1.75 1.76 1.69 1.61 1.47 1.28 1.12 0.99 0.90 0.80 0.65 0.53 0.49 0.47 0.43 0.39 0.41 0.40 0.36 0.32 0.29 0.26 0.23 0.20 0.19 0.17 0.16
0.20 0.28 0.39 0.41 0.29 0.44 0.70 0.52 0.43 0.47 0.55 0.74 1.03 1.25 1.23 1.27 1.45 1.54 1.58 1.55 1.57 1.52 1.44 1.32 1.21 1.10 0.97 0.81 0.69 0.63 0.59 0.50 0.45 0.46 0.41 0.37 0.34 0.29 0.22 0.18 0.19 0.19 0.19 0.20
0.20 0.33 0.39 0.44 0.52 0.92 0.93 0.59 0.53 0.59 0.68 0.67 0.79 0.88 0.96 1.00 1.11 1.21 1.30 1.45 1.58 1.57 1.47 1.38 1.24 1.12 1.02 0.87 0.73 0.63 0.54 0.46 0.45 0.46 0.39 0.33 0.32 0.28 0.23 0.19 0.20 0.19 0.20 0.21
0.12 0.29 0.45 0.57 0.82 1.06 0.95 0.63 0.62 0.87 0.98 0.67 0.61 0.65 0.67 0.70 0.84 1.14 1.26 1.39 1.54 1.54 1.45 1.35 1.21 1.09 0.98 0.84 0.71 0.60 0.56 0.49 0.46 0.41 0.33 0.27 0.26 0.25 0.22 0.20 0.19 0.19 0.20 0.21
0.12 0.22 0.47 0.67 0.98 1.29 1.23 0.60 0.41 0.75 1.26 0.82 0.63 0.64 0.70 0.81 0.98 1.03 0.95 0.99 1.20 1.38 1.43 1.38 1.20 1.00 0.87 0.72 0.57 0.51 0.49 0.44 0.38 0.29 0.22 0.20 0.22 0.20 0.18 0.17 0.17 0.17 0.19 0.20
0.34 0.41 0.58 0.78 1.11 1.26 0.71 0.39 0.49 1.04 1.24 0.98 0.82 0.76 0.84 1.02 1.07 0.86 0.77 0.86 1.01 1.16 1.24 1.18 1.06 0.93 0.74 0.57 0.50 0.49 0.41 0.34 0.25 0.19 0.17 0.19 0.21 0.21 0.18 0.19 0.20 0.19 0.19 0.24
0.48 0.67 0.78 0.92 1.22 1.23 0.50 0.37 0.65 0.80 0.70 0.69 0.64 0.58 0.62 0.62 0.59 0.60 0.68 0.82 0.94 1.01 1.00 0.94 0.87 0.76 0.63 0.52 0.51 0.50 0.43 0.32 0.23 0.22 0.22 0.22 0.21 0.13 0.12 0.21 0.23 0.21 0.25 0.28
0.39 0.56 0.73 0.91 1.08 0.86 0.45 0.35 0.37 0.43 0.49 0.47 0.47 0.42 0.44 0.47 0.50 0.51 0.57 0.68 0.77 0.80 0.77 0.69 0.58 0.55 0.52 0.47 0.48 0.48 0.41 0.29 0.28 0.31 0.31 0.25 0.19 0.16 0.14 0.19 0.22 0.23 0.25 0.23
0.42 0.31 0.44 0.66 0.66 0.55 0.41 0.34 0.28 0.27 0.32 0.31 0.32 0.35 0.41 0.47 0.46 0.45 0.46 0.49 0.55 0.57 0.56 0.55 0.51 0.50 0.45 0.40 0.36 0.38 0.31 0.25 0.34 0.38 0.33 0.27 0.25 0.20 0.17 0.16 0.13 0.17 0.17 0.17
0.46 0.52 0.69 0.80 0.66 0.57 0.50 0.39 0.29 0.25 0.23 0.22 0.26 0.31 0.34 0.35 0.35 0.34 0.35 0.35 0.37 0.37 0.41 0.44 0.42 0.39 0.32 0.27 0.24 0.21 0.19 0.21 0.31 0.34 0.28 0.24 0.19 0.17 0.19 0.15 0.07 0.06 0.07 0.04
0.35 0.63 1.04 0.88 0.70 0.71 0.60 0.43 0.34 0.33 0.31 0.30 0.25 0.24 0.26 0.26 0.25 0.25 0.28 0.31 0.30 0.28 0.30 0.33 0.32 0.27 0.22 0.19 0.19 0.16 0.12 0.14 0.23 0.28 0.24 0.18 0.13 0.12 0.13 0.14 0.12 0.04 0.01 0.01